Weather History for West Plains, MO

Change the Weather History Date:

Monday, November 19, 2012

  Actual Average Record
Temperature  
Mean Temperature 47 °F 45 °F  
Max Temperature 51 °F 55 °F 77 °F (1979)
Min Temperature 43 °F 35 °F 14 °F (1951)
Degree Days  
Heating Degree Days 18 20  
Month to date heating degree days 347 305  
Since 1 July heating degree days 715 608  
Cooling Degree Days 0 0  
Month to date cooling degree days 0 0  
Year to date cooling degree days 1739 1352  
Moisture  
Dew Point 41 °F    
Average Humidity 77    
Maximum Humidity 87    
Minimum Humidity 61    
Precipitation  
Precipitation 0.03 in 0.16 in 4.01 in (1985)
Month to date precipitation 1.33 2.85  
Year to date precipitation 29.59 40.85  
Sea Level Pressure  
Sea Level Pressure 30.23 in    
Wind  
Wind Speed 4 mph (South)    
Max Wind Speed 10 mph    
Max Gust Speed 14 mph    
Visibility 9 miles    
Events Rain    
T = Trace of Precipitation, MM = Missing Value Source: NWS Daily Summary

Daily Weather History Graph

Daily Weather History Graph

Search for Another Location

Airport:

Trip Planner

Search our weather history database for the weather conditions in past years. The results will help you decide how hot, cold, wet, or windy it might be!

Date:

Astronomy

Nov. 19, 2012 Rise Set
Actual Time 6:50 AM CST 4:55 PM CST
Civil Twilight 6:22 AM CST 5:23 PM CST
Nautical Twilight 5:51 AM CST 5:54 PM CST
Astronomical Twilight 5:20 AM CST 6:25 PM CST
Moon 11:56 AM CST (11/19) 11:18 PM CST (11/19)
Length of Visible Light 11h 00m
Length of Day
10h 04m
Waxing Crescent, 41% of the Moon is Illuminated
Nov 19
Waxing Crescent
Nov 20
First Quarter
Nov 28
Full
Dec 6
Last Quarter
Dec 13
New

Hourly Weather History & Observations

Time (CST) Temp. Windchill Dew Point Humidity Pressure Visibility Wind Dir Wind Speed Gust Speed Precip Events Conditions
12:53 AM 46.9 °F - 34.0 °F 61% 30.28 in 10.0 mi South 4.6 mph - N/A   Clear
1:53 AM 46.9 °F - 34.0 °F 61% 30.28 in 10.0 mi SSE 3.5 mph - N/A   Clear
2:53 AM 46.9 °F - 34.0 °F 61% 30.27 in 10.0 mi Calm Calm - N/A   Clear
3:53 AM 46.9 °F - 35.1 °F 63% 30.27 in 10.0 mi Calm Calm - N/A   Scattered Clouds
4:53 AM 48.0 °F - 35.1 °F 61% 30.28 in 10.0 mi South 3.5 mph - N/A   Overcast
5:53 AM 46.9 °F - 36.0 °F 66% 30.27 in 10.0 mi Calm Calm - N/A   Overcast
6:53 AM 46.0 °F - 35.1 °F 66% 30.28 in 10.0 mi Calm Calm - N/A   Mostly Cloudy
7:53 AM 46.9 °F - 35.1 °F 63% 30.29 in 10.0 mi South 3.5 mph - 0.00 in Rain Light Rain
8:53 AM 46.0 °F 44.8 °F 39.9 °F 79% 30.30 in 8.0 mi South 3.5 mph - 0.03 in Rain Light Rain
9:53 AM 48.0 °F - 39.9 °F 74% 30.29 in 9.0 mi South 3.5 mph - 0.00 in   Overcast
10:48 AM 51.8 °F - 39.2 °F 62% 30.28 in 10.0 mi SSW 3.5 mph - N/A   Overcast
10:53 AM 51.1 °F - 39.9 °F 66% 30.28 in 10.0 mi South 4.6 mph - N/A   Overcast
11:53 AM 51.1 °F - 39.9 °F 66% 30.26 in 10.0 mi South 5.8 mph - 0.00 in   Overcast
12:53 PM 48.0 °F - 44.1 °F 86% 30.24 in 2.0 mi SSW 8.1 mph - 0.00 in Rain Light Rain
1:14 PM 48.2 °F - 44.6 °F 87% 30.22 in 4.0 mi South 8.1 mph - 0.00 in   Overcast
1:51 PM 48.2 °F - 44.6 °F 87% 30.21 in 9.0 mi South 4.6 mph - 0.00 in   Overcast
1:53 PM 48.9 °F - 45.0 °F 86% 30.22 in 9.0 mi South 4.6 mph - 0.00 in   Overcast
2:20 PM 50.0 °F - 44.6 °F 82% 30.21 in 10.0 mi SSW 5.8 mph - N/A   Overcast
2:34 PM 50.0 °F - 44.6 °F 82% 30.21 in 10.0 mi South 5.8 mph - N/A   Overcast
2:53 PM 50.0 °F - 45.0 °F 83% 30.20 in 10.0 mi South 6.9 mph - N/A   Overcast
3:01 PM 50.0 °F - 44.6 °F 82% 30.20 in 10.0 mi South 5.8 mph - N/A   Overcast
3:30 PM 48.2 °F - 44.6 °F 87% 30.20 in 8.0 mi South 8.1 mph - N/A   Overcast
3:40 PM 48.2 °F - 44.6 °F 87% 30.20 in 9.0 mi South 9.2 mph - N/A   Overcast
3:53 PM 48.9 °F - 45.0 °F 86% 30.20 in 10.0 mi South 5.8 mph - N/A   Overcast
4:01 PM 48.2 °F - 44.6 °F 87% 30.19 in 10.0 mi South 8.1 mph - N/A   Overcast
4:23 PM 48.2 °F - 44.6 °F 87% 30.18 in 9.0 mi South 8.1 mph - N/A   Overcast
4:53 PM 48.9 °F - 45.0 °F 86% 30.18 in 9.0 mi South 5.8 mph - N/A   Overcast
5:53 PM 50.0 °F - 45.0 °F 83% 30.19 in 10.0 mi South 3.5 mph - N/A   Overcast
6:53 PM 51.1 °F - 43.0 °F 74% 30.19 in 10.0 mi South 3.5 mph - N/A   Overcast
7:53 PM 48.0 °F - 42.1 °F 80% 30.19 in 10.0 mi South 3.5 mph - N/A   Partly Cloudy
8:53 PM 45.0 °F 43.5 °F 39.9 °F 82% 30.18 in 10.0 mi SSW 3.5 mph - N/A   Scattered Clouds
9:53 PM 45.0 °F - 39.9 °F 82% 30.18 in 10.0 mi Calm Calm - N/A   Partly Cloudy
10:53 PM 45.0 °F 41.8 °F 39.9 °F 82% 30.16 in 10.0 mi SSW 5.8 mph - N/A   Clear
11:53 PM 44.1 °F 42.5 °F 39.9 °F 85% 30.17 in 10.0 mi WSW 3.5 mph - N/A   Clear